• In Uzbekistan
  • List of Countries
  • For 7 days
  • Water Temperature
  • Satellite Maps
  • Weather Map
  • Weather Widgets
  • user-avatar
    Login

    Hourly Weather Andora

    Today, 27 July, Thursday

    Time Temperature Precipitation Wind Pressure Humidity
    00:00 +10°C° 0 mm 2 mps 625 mmHg 77%
    01:00 +10°C° 0 mm 2 mps 625 mmHg 75%
    02:00 +11°C° 0 mm 1 mps 625 mmHg 74%
    03:00 +11°C° 0 mm 1 mps 625 mmHg 72%
    04:00 +12°C° 0 mm 1 mps 626 mmHg 69%
    05:00 +12°C° 0 mm 1 mps 626 mmHg 66%
    06:00 +14°C° 0 mm 1 mps 627 mmHg 62%
    07:00 +16°C° 0 mm 1 mps 627 mmHg 55%
    08:00 +19°C° 0 mm 1 mps 628 mmHg 48%
    09:00 +22°C° 0 mm 1 mps 629 mmHg 40%
    10:00 +23°C° 0 mm 2 mps 629 mmHg 38%
    11:00 +24°C° 0 mm 2 mps 630 mmHg 36%
    12:00 +25°C° 0 mm 2 mps 630 mmHg 34%
    13:00 +25°C° 0 mm 2 mps 630 mmHg 35%
    14:00 +25°C° 0 mm 3 mps 629 mmHg 36%
    15:00 +25°C° 0 mm 3 mps 629 mmHg 36%
    16:00 +24°C° 0 mm 3 mps 629 mmHg 40%
    17:00 +23°C° 0 mm 2 mps 629 mmHg 44%
    18:00 +21°C° 0 mm 2 mps 628 mmHg 48%
    19:00 +19°C° 0 mm 2 mps 628 mmHg 58%
    20:00 +16°C° 0 mm 2 mps 627 mmHg 68%
    21:00 +14°C° 0 mm 1 mps 627 mmHg 78%
    22:00 +14°C° 0 mm 1 mps 627 mmHg 79%
    23:00 +13°C° 0 mm 1 mps 627 mmHg 81%

    Tomorrow, 28 July, Friday

    Time Temperature Precipitation Wind Pressure Humidity
    00:00 +13°C° 0 mm 1 mps 627 mmHg 83%
    01:00 +13°C° 0 mm 1 mps 626 mmHg 82%
    02:00 +13°C° 0 mm 1 mps 626 mmHg 82%
    03:00 +12°C° 0 mm 1 mps 626 mmHg 82%
    04:00 +13°C° 0 mm 1 mps 627 mmHg 80%
    05:00 +14°C° 0 mm 1 mps 627 mmHg 77%
    06:00 +14°C° 0 mm 1 mps 628 mmHg 75%
    07:00 +16°C° 0 mm 1 mps 629 mmHg 69%
    08:00 +18°C° 0 mm 2 mps 629 mmHg 63%
    09:00 +20°C° 0 mm 2 mps 630 mmHg 57%
    10:00 +21°C° 0 mm 3 mps 631 mmHg 55%
    11:00 +22°C° 0 mm 3 mps 631 mmHg 53%
    12:00 +22°C° 0 mm 3 mps 631 mmHg 51%
    13:00 +24°C° 0.1 mm 3 mps 631 mmHg 51%
    14:00 +24°C° 0.1 mm 3 mps 631 mmHg 50%
    15:00 +24°C° 0.1 mm 3 mps 630 mmHg 50%
    16:00 +22°C° 0.1 mm 3 mps 630 mmHg 54%
    17:00 +21°C° 0.1 mm 2 mps 630 mmHg 58%
    18:00 +20°C° 0.1 mm 2 mps 630 mmHg 62%
    19:00 +19°C° 0.1 mm 1 mps 629 mmHg 70%
    20:00 +16°C° 0.1 mm 1 mps 629 mmHg 78%
    21:00 +13°C° 0.1 mm 0 mps 628 mmHg 87%
    22:00 +14°C° 0.1 mm 1 mps 628 mmHg 87%
    23:00 +14°C° 0.1 mm 1 mps 628 mmHg 87%

    Day after tomorrow, 29 July, Saturday

    Time Temperature Precipitation Wind Pressure Humidity
    00:00 +14°C° 0.1 mm 1 mps 628 mmHg 88%
    01:00 +14°C° 0.1 mm 1 mps 628 mmHg 87%
    02:00 +13°C° 0.1 mm 1 mps 628 mmHg 87%
    03:00 +13°C° 0.1 mm 1 mps 627 mmHg 87%
    04:00 +14°C° 0 mm 1 mps 628 mmHg 83%
    05:00 +15°C° 0 mm 1 mps 628 mmHg 80%
    06:00 +15°C° 0 mm 1 mps 628 mmHg 77%
    07:00 +19°C° 0 mm 1 mps 629 mmHg 67%
    08:00 +20°C° 0 mm 2 mps 630 mmHg 56%
    09:00 +24°C° 0 mm 2 mps 631 mmHg 46%
    10:00 +25°C° 0 mm 3 mps 631 mmHg 41%
    11:00 +26°C° 0 mm 3 mps 631 mmHg 36%
    12:00 +27°C° 0 mm 4 mps 631 mmHg 32%
    13:00 +27°C° 0 mm 4 mps 631 mmHg 32%
    14:00 +28°C° 0 mm 4 mps 631 mmHg 32%
    15:00 +28°C° 0 mm 4 mps 631 mmHg 32%
    16:00 +26°C° 0 mm 4 mps 630 mmHg 37%
    17:00 +25°C° 0 mm 3 mps 630 mmHg 43%
    18:00 +24°C° 0 mm 3 mps 629 mmHg 48%
    19:00 +20°C° 0.1 mm 2 mps 629 mmHg 55%
    20:00 +19°C° 0.1 mm 1 mps 628 mmHg 63%
    21:00 +16°C° 0.1 mm 1 mps 628 mmHg 70%
    22:00 +15°C° 0.1 mm 1 mps 627 mmHg 70%
    23:00 +15°C° 0.1 mm 1 mps 627 mmHg 71%

    30 July, Sunday

    Time Temperature Precipitation Wind Pressure Humidity
    00:00 +14°C° 0.1 mm 1 mps 627 mmHg 71%
    01:00 +14°C° 0 mm 1 mps 627 mmHg 70%
    02:00 +14°C° 0 mm 1 mps 627 mmHg 69%
    03:00 +13°C° 0 mm 1 mps 627 mmHg 68%
    04:00 +14°C° 0 mm 1 mps 627 mmHg 67%
    05:00 +14°C° 0 mm 1 mps 627 mmHg 65%
    06:00 +15°C° 0 mm 1 mps 627 mmHg 64%
    07:00 +18°C° 0 mm 1 mps 628 mmHg 57%
    08:00 +20°C° 0 mm 2 mps 629 mmHg 51%
    09:00 +22°C° 0 mm 3 mps 630 mmHg 44%
    10:00 +24°C° 0 mm 3 mps 630 mmHg 42%
    11:00 +25°C° 0 mm 4 mps 630 mmHg 39%
    12:00 +26°C° 0 mm 4 mps 630 mmHg 37%
    13:00 +26°C° 0 mm 4 mps 630 mmHg 37%
    14:00 +26°C° 0 mm 4 mps 630 mmHg 37%
    15:00 +26°C° 0 mm 4 mps 630 mmHg 37%
    16:00 +25°C° 0 mm 4 mps 629 mmHg 42%
    17:00 +24°C° 0 mm 3 mps 629 mmHg 47%
    18:00 +23°C° 0 mm 2 mps 628 mmHg 52%
    19:00 +20°C° 0 mm 2 mps 628 mmHg 60%
    20:00 +19°C° 0 mm 1 mps 627 mmHg 68%
    21:00 +16°C° 0 mm 1 mps 627 mmHg 76%
    22:00 +15°C° 0 mm 1 mps 626 mmHg 77%
    23:00 +15°C° 0 mm 1 mps 626 mmHg 78%

    31 July, Monday

    Time Temperature Precipitation Wind Pressure Humidity
    00:00 +14°C° 0 mm 1 mps 626 mmHg 79%
    01:00 +14°C° 0 mm 1 mps 626 mmHg 78%
    02:00 +14°C° 0 mm 1 mps 625 mmHg 77%
    03:00 +14°C° 0 mm 1 mps 625 mmHg 76%
    04:00 +14°C° 0 mm 1 mps 625 mmHg 71%
    05:00 +15°C° 0 mm 2 mps 625 mmHg 67%
    06:00 +15°C° 0 mm 2 mps 626 mmHg 63%
    07:00 +18°C° 0 mm 2 mps 627 mmHg 56%
    08:00 +20°C° 0 mm 3 mps 628 mmHg 49%
    09:00 +24°C° 0 mm 3 mps 628 mmHg 42%
    10:00 +25°C° 0 mm 4 mps 628 mmHg 39%
    11:00 +26°C° 0 mm 4 mps 629 mmHg 36%
    12:00 +27°C° 0 mm 5 mps 629 mmHg 33%
    13:00 +27°C° 0 mm 5 mps 628 mmHg 34%
    14:00 +27°C° 0 mm 5 mps 628 mmHg 34%
    15:00 +27°C° 0 mm 5 mps 628 mmHg 35%
    16:00 +25°C° 0.1 mm 5 mps 627 mmHg 40%
    17:00 +23°C° 0.1 mm 4 mps 626 mmHg 45%
    18:00 +22°C° 0.1 mm 3 mps 626 mmHg 50%
    19:00 +20°C° 0.1 mm 2 mps 625 mmHg 55%
    20:00 +18°C° 0.1 mm 2 mps 625 mmHg 61%
    21:00 +16°C° 0.1 mm 2 mps 625 mmHg 67%
    22:00 +15°C° 0 mm 1 mps 624 mmHg 65%
    23:00 +15°C° 0 mm 1 mps 624 mmHg 63%

    1 August, Tuesday

    Time Temperature Precipitation Wind Pressure Humidity
    00:00 +14°C° 0 mm 1 mps 624 mmHg 61%
    01:00 +14°C° 0 mm 1 mps 624 mmHg 60%
    02:00 +14°C° 0 mm 1 mps 624 mmHg 60%
    03:00 +13°C° 0 mm 1 mps 624 mmHg 60%
    04:00 +14°C° 0 mm 1 mps 624 mmHg 61%
    05:00 +14°C° 0 mm 1 mps 624 mmHg 63%
    06:00 +15°C° 0 mm 1 mps 625 mmHg 64%
    07:00 +16°C° 0 mm 1 mps 626 mmHg 62%
    08:00 +18°C° 0 mm 1 mps 627 mmHg 60%
    09:00 +18°C° 0 mm 2 mps 627 mmHg 58%
    10:00 +19°C° 0.1 mm 2 mps 628 mmHg 56%
    11:00 +20°C° 0.1 mm 2 mps 628 mmHg 55%
    12:00 +20°C° 0.1 mm 3 mps 628 mmHg 53%
    13:00 +21°C° 0.1 mm 3 mps 629 mmHg 51%
    14:00 +21°C° 0.1 mm 3 mps 629 mmHg 49%
    15:00 +21°C° 0.1 mm 3 mps 629 mmHg 48%
    16:00 +20°C° 0 mm 2 mps 629 mmHg 51%
    17:00 +20°C° 0 mm 2 mps 629 mmHg 54%
    18:00 +19°C° 0 mm 2 mps 629 mmHg 57%
    19:00 +17°C° 0 mm 2 mps 628 mmHg 66%
    20:00 +15°C° 0 mm 2 mps 628 mmHg 76%
    21:00 +13°C° 0 mm 1 mps 628 mmHg 85%
    22:00 +13°C° 0 mm 1 mps 628 mmHg 87%
    23:00 +12°C° 0 mm 1 mps 628 mmHg 88%
    Show more